Location: *
(1.3500°S, 147.5000°W)
Time: 19:40:45
(UTC+00:00)

Spelda - Pass Details

Date: 07 April 2020
Orbit: 355 x 21834 km, 4.3° (Epoch: 27 May)

Event Time Altitude Azimuth Distance (km) Brightness Sun altitude
Rises 04:42:42 0° 287° (WNW) 2,143 8.2 -12.7°
Reaches altitude 10° 04:44:18 10° 299° (WNW) 1,380 6.5 -13.1°
Maximum altitude 04:46:42 35° 9° (N) 838 4.2 -13.7°
Enters shadow 04:49:45 17° 69° (ENE) 1,976 5.6 -14.5°
